TRA736 LFPO-LPPT

Flight info

Callsign TRA736
Flight time 2h 22m
Altitude 37000
Route LGL UT176 KURIS UN872 ERIGA UZ218 FUJTI DCT BAKUP DCT BATAX DCT INBOM
Aircraft B738/M-SDE2E3FGHIRWXY/LB1

Departure

Time 2026-05-04 14:32
Airport Paris-Orly Airport (LFPO)

Arrival

Time 2026-05-04 16:55
Airport Lisbon Humberto Delgado Airport (LPPT)
Time Latitude Longitude Altitude Speed Heading
2026-05-04 13:53 48.72841 2.35752 300 ft 0 kts 14°
2026-05-04 14:24 48.72833 2.35749 301 ft 4 kts 14°
2026-05-04 14:25 48.72807 2.35737 300 ft 4 kts 25°
2026-05-04 14:25 48.72779 2.35683 303 ft 4 kts 75°
2026-05-04 14:25 48.72775 2.35644 302 ft 4 kts 101°
2026-05-04 14:26 48.72784 2.35611 303 ft 4 kts 127°
2026-05-04 14:26 48.72803 2.35584 303 ft 4 kts 154°
2026-05-04 14:26 48.72826 2.35571 301 ft 1 kts 164°
2026-05-04 14:26 48.72826 2.35570 301 ft 0 kts 164°
2026-05-04 14:28 48.72824 2.35571 301 ft 2 kts 164°
2026-05-04 14:28 48.72772 2.35594 302 ft 13 kts 164°
2026-05-04 14:29 48.72591 2.35669 302 ft 13 kts 165°
2026-05-04 14:29 48.72455 2.35649 302 ft 9 kts 231°
2026-05-04 14:30 48.72393 2.35626 300 ft 12 kts 166°
2026-05-04 14:30 48.72286 2.35615 302 ft 17 kts 198°
2026-05-04 14:30 48.72077 2.35675 301 ft 14 kts 149°
2026-05-04 14:31 48.72018 2.35779 298 ft 13 kts 120°
2026-05-04 14:31 48.71959 2.35953 301 ft 7 kts 75°
2026-05-04 14:32 48.72160 2.37041 300 ft 120 kts 74°
2026-05-04 14:32 48.72434 2.38540 369 ft 169 kts 75°
2026-05-04 14:32 48.72761 2.40265 1121 ft 167 kts 75°
2026-05-04 14:32 48.73077 2.41951 1995 ft 166 kts 75°
2026-05-04 14:33 48.73398 2.43698 2428 ft 188 kts 75°
2026-05-04 14:33 48.73777 2.45740 2677 ft 213 kts 74°
2026-05-04 14:33 48.74113 2.48038 2920 ft 232 kts 85°
2026-05-04 14:33 48.74173 2.50543 3247 ft 249 kts 88°
2026-05-04 14:34 48.74247 2.53239 3742 ft 261 kts 87°
2026-05-04 14:34 48.74273 2.55973 4739 ft 259 kts 97°
2026-05-04 14:34 48.73624 2.58535 5651 ft 268 kts 125°
2026-05-04 14:34 48.72218 2.60407 6533 ft 273 kts 152°
2026-05-04 14:35 48.70382 2.61128 7374 ft 277 kts 180°
2026-05-04 14:35 48.68549 2.60509 8198 ft 279 kts 206°
2026-05-04 14:35 48.67028 2.58630 8825 ft 289 kts 233°
2026-05-04 14:35 48.66207 2.55865 9686 ft 291 kts 259°
2026-05-04 14:36 48.66114 2.52807 10336 ft 298 kts 272°
2026-05-04 14:36 48.66241 2.49560 10539 ft 320 kts 274°
2026-05-04 14:36 48.66368 2.46086 10720 ft 341 kts 273°
2026-05-04 14:36 48.66474 2.42393 10861 ft 361 kts 271°
2026-05-04 14:37 48.66163 2.38556 11074 ft 376 kts 250°
2026-05-04 14:37 48.65136 2.34948 11620 ft 381 kts 245°
2026-05-04 14:37 48.64082 2.31261 12259 ft 384 kts 246°
2026-05-04 14:37 48.63114 2.27487 12872 ft 388 kts 255°
2026-05-04 14:38 48.62898 2.23416 13511 ft 393 kts 276°
2026-05-04 14:38 48.63307 2.19323 14179 ft 395 kts 279°
2026-05-04 14:38 48.63760 2.15199 14761 ft 400 kts 279°
2026-05-04 14:38 48.64215 2.11024 15397 ft 404 kts 278°
2026-05-04 14:39 48.64657 2.06824 16062 ft 407 kts 278°
2026-05-04 14:39 48.65092 2.02581 16739 ft 409 kts 277°
2026-05-04 14:39 48.65510 1.98419 17355 ft 412 kts 277°
2026-05-04 14:40 48.66371 1.89779 18501 ft 419 kts 278°
2026-05-04 14:40 48.67022 1.85470 19010 ft 423 kts 284°
2026-05-04 14:40 48.67912 1.81221 19564 ft 425 kts 287°
2026-05-04 14:40 48.68871 1.76974 20095 ft 427 kts 287°
2026-05-04 14:41 48.69825 1.72704 20605 ft 430 kts 286°
2026-05-04 14:41 48.70763 1.68368 20964 ft 436 kts 286°
2026-05-04 14:41 48.72583 1.59615 21982 ft 440 kts 285°
2026-05-04 14:42 48.74399 1.50738 23002 ft 443 kts 284°
2026-05-04 14:42 48.75131 1.46202 23445 ft 443 kts 275°
2026-05-04 14:42 48.75407 1.41562 23866 ft 443 kts 271°
2026-05-04 14:43 48.75573 1.36886 24262 ft 445 kts 270°
2026-05-04 14:43 48.75723 1.32198 24633 ft 447 kts 270°
2026-05-04 14:43 48.75885 1.27545 24968 ft 450 kts 270°
2026-05-04 14:43 48.76071 1.22789 25224 ft 455 kts 271°
2026-05-04 14:44 48.76276 1.18001 25576 ft 456 kts 271°
2026-05-04 14:44 48.76493 1.13202 25954 ft 457 kts 271°
2026-05-04 14:44 48.76713 1.08392 26311 ft 458 kts 271°
2026-05-04 14:44 48.76934 1.03567 26643 ft 460 kts 271°
2026-05-04 14:45 48.77153 0.98723 26953 ft 462 kts 271°
2026-05-04 14:45 48.77370 0.93861 27259 ft 463 kts 271°
2026-05-04 14:45 48.77584 0.88983 27568 ft 465 kts 271°
2026-05-04 14:45 48.77794 0.84149 27883 ft 466 kts 271°
2026-05-04 14:46 48.78009 0.79173 28234 ft 466 kts 271°
2026-05-04 14:46 48.78215 0.74349 28682 ft 464 kts 271°
2026-05-04 14:46 48.78422 0.69464 29184 ft 461 kts 270°
2026-05-04 14:46 48.78624 0.64631 29649 ft 459 kts 270°
2026-05-04 14:47 48.78823 0.59807 30053 ft 459 kts 270°
2026-05-04 14:47 48.78634 0.55028 30323 ft 452 kts 253°
2026-05-04 14:47 48.77549 0.50608 30669 ft 445 kts 239°
2026-05-04 14:47 48.75794 0.46799 31047 ft 439 kts 227°
2026-05-04 14:48 48.73799 0.43309 31438 ft 437 kts 226°
2026-05-04 14:48 48.71789 0.39864 31724 ft 437 kts 226°
2026-05-04 14:48 48.69807 0.36454 32025 ft 437 kts 226°
2026-05-04 14:48 48.67813 0.32985 32354 ft 436 kts 226°
2026-05-04 14:49 48.65839 0.29519 32693 ft 435 kts 226°
2026-05-04 14:49 48.63868 0.26042 32970 ft 435 kts 227°
2026-05-04 14:49 48.61894 0.22558 33179 ft 437 kts 226°
2026-05-04 14:49 48.59929 0.19094 33450 ft 437 kts 226°
2026-05-04 14:50 48.57952 0.15618 33802 ft 435 kts 226°
2026-05-04 14:50 48.55976 0.12124 34096 ft 435 kts 227°
2026-05-04 14:50 48.54045 0.08690 34309 ft 435 kts 227°
2026-05-04 14:50 48.52088 0.05207 34498 ft 436 kts 227°
2026-05-04 14:51 48.50125 0.01715 34731 ft 436 kts 227°
2026-05-04 14:51 48.48165 -0.01765 34997 ft 436 kts 227°
2026-05-04 14:51 48.46197 -0.05253 35148 ft 438 kts 227°
2026-05-04 14:51 48.44221 -0.08747 35328 ft 438 kts 227°
2026-05-04 14:52 48.42245 -0.12238 35576 ft 437 kts 227°
2026-05-04 14:52 48.40275 -0.15717 35845 ft 436 kts 228°
2026-05-04 14:52 48.38307 -0.19193 36034 ft 437 kts 228°
2026-05-04 14:52 48.36358 -0.22625 36186 ft 438 kts 228°
2026-05-04 14:53 48.34377 -0.26100 36382 ft 438 kts 227°
2026-05-04 14:53 48.32384 -0.29563 36590 ft 438 kts 227°
2026-05-04 14:53 48.30387 -0.33013 36786 ft 438 kts 227°
2026-05-04 14:53 48.28387 -0.36456 36929 ft 439 kts 227°
2026-05-04 14:54 48.24356 -0.43385 36947 ft 441 kts 227°
2026-05-04 14:54 48.20363 -0.50239 36954 ft 437 kts 227°
2026-05-04 14:55 48.16376 -0.57068 36955 ft 434 kts 227°
2026-05-04 14:55 48.12408 -0.63848 36964 ft 432 kts 227°
2026-05-04 14:56 48.09121 -0.69451 36965 ft 430 kts 227°
2026-05-04 14:56 48.05169 -0.76173 36962 ft 430 kts 227°
2026-05-04 14:57 48.00567 -0.83977 36972 ft 431 kts 227°
2026-05-04 14:57 47.96591 -0.90701 36969 ft 433 kts 227°
2026-05-04 14:58 47.93270 -0.96307 36941 ft 435 kts 227°
2026-05-04 14:58 47.89255 -1.03065 36939 ft 436 kts 227°
2026-05-04 14:59 47.85223 -1.09836 36941 ft 437 kts 227°
2026-05-04 15:00 47.79176 -1.19959 36931 ft 439 kts 226°
2026-05-04 15:00 47.75118 -1.26731 36954 ft 439 kts 226°
2026-05-04 15:01 47.69002 -1.36902 36940 ft 440 kts 226°
2026-05-04 15:01 47.64914 -1.43680 36939 ft 441 kts 226°
2026-05-04 15:02 47.60847 -1.50408 36941 ft 441 kts 226°
2026-05-04 15:02 47.56741 -1.57181 36942 ft 441 kts 226°
2026-05-04 15:03 47.52637 -1.63932 36943 ft 441 kts 226°
2026-05-04 15:03 47.48553 -1.70630 36953 ft 441 kts 226°
2026-05-04 15:04 47.44437 -1.77365 36946 ft 442 kts 226°
2026-05-04 15:04 47.40315 -1.84092 36951 ft 441 kts 226°
2026-05-04 15:05 47.36184 -1.90792 36962 ft 441 kts 224°
2026-05-04 15:05 47.31394 -1.96220 36971 ft 437 kts 210°
2026-05-04 15:06 47.26168 -2.00803 36966 ft 437 kts 210°
2026-05-04 15:07 47.18353 -2.07699 36978 ft 437 kts 210°
2026-05-04 15:07 47.13148 -2.12324 36961 ft 437 kts 210°
2026-05-04 15:08 47.07980 -2.16914 36957 ft 437 kts 210°
2026-05-04 15:08 47.02767 -2.21531 36957 ft 438 kts 210°
2026-05-04 15:09 46.97675 -2.26029 36956 ft 438 kts 210°
2026-05-04 15:09 46.92450 -2.30633 36957 ft 439 kts 210°
2026-05-04 15:10 46.84801 -2.37358 36963 ft 439 kts 210°
2026-05-04 15:11 46.76948 -2.44257 36981 ft 440 kts 210°
2026-05-04 15:11 46.71694 -2.48859 36962 ft 441 kts 210°
2026-05-04 15:12 46.66464 -2.53428 36958 ft 442 kts 210°
2026-05-04 15:12 46.61191 -2.58023 36963 ft 442 kts 210°
2026-05-04 15:13 46.55906 -2.62617 36972 ft 443 kts 210°
2026-05-04 15:13 46.50611 -2.67210 36969 ft 443 kts 210°
2026-05-04 15:14 46.45339 -2.71772 36962 ft 444 kts 210°
2026-05-04 15:14 46.40040 -2.76347 36959 ft 444 kts 210°
2026-05-04 15:15 46.34734 -2.80918 36983 ft 444 kts 210°
2026-05-04 15:15 46.29426 -2.85479 36978 ft 444 kts 210°
2026-05-04 15:16 46.21549 -2.92286 36961 ft 444 kts 211°
2026-05-04 15:17 46.13630 -2.99199 36969 ft 443 kts 211°
2026-05-04 15:17 46.05756 -3.06035 36972 ft 442 kts 211°
2026-05-04 15:18 46.00494 -3.10586 36973 ft 441 kts 211°
2026-05-04 15:19 45.92620 -3.17375 36976 ft 440 kts 211°
2026-05-04 15:19 45.84783 -3.24109 36976 ft 439 kts 211°
2026-05-04 15:20 45.79533 -3.28608 36974 ft 440 kts 211°
2026-05-04 15:20 45.74278 -3.33102 36977 ft 440 kts 211°
2026-05-04 15:21 45.69009 -3.37597 36970 ft 441 kts 211°
2026-05-04 15:22 45.61130 -3.44301 36979 ft 442 kts 211°
2026-05-04 15:22 45.53190 -3.51034 36997 ft 443 kts 211°
2026-05-04 15:23 45.47883 -3.55522 36979 ft 444 kts 211°
2026-05-04 15:23 45.42599 -3.59980 36984 ft 445 kts 211°
2026-05-04 15:24 45.31943 -3.68942 36969 ft 445 kts 211°
2026-05-04 15:25 45.26612 -3.73410 36979 ft 445 kts 211°
2026-05-04 15:26 45.18661 -3.80057 36981 ft 444 kts 211°
2026-05-04 15:26 45.10676 -3.86710 36979 ft 443 kts 211°
2026-05-04 15:27 45.02704 -3.93330 36978 ft 443 kts 211°
2026-05-04 15:28 44.94777 -3.99891 36985 ft 442 kts 211°
2026-05-04 15:29 44.86818 -4.06458 36983 ft 441 kts 211°
2026-05-04 15:30 44.68304 -4.21650 36984 ft 441 kts 211°
2026-05-04 15:31 44.60352 -4.28140 36989 ft 441 kts 211°
2026-05-04 15:32 44.47122 -4.38891 36987 ft 441 kts 211°
2026-05-04 15:34 44.33959 -4.49778 36992 ft 441 kts 212°
2026-05-04 15:34 44.26105 -4.56468 36989 ft 441 kts 212°
2026-05-04 15:35 44.18270 -4.63085 36997 ft 441 kts 212°
2026-05-04 15:36 44.10384 -4.69711 36990 ft 441 kts 212°
2026-05-04 15:36 44.05126 -4.74117 36992 ft 441 kts 212°
2026-05-04 15:37 43.99867 -4.78515 37002 ft 441 kts 212°
2026-05-04 15:37 43.94642 -4.82876 37001 ft 441 kts 212°
2026-05-04 15:38 43.89378 -4.87260 36997 ft 441 kts 212°
2026-05-04 15:38 43.84114 -4.91635 37004 ft 441 kts 212°
2026-05-04 15:39 43.78850 -4.96000 37018 ft 441 kts 212°
2026-05-04 15:40 43.71002 -5.02492 37010 ft 441 kts 212°
2026-05-04 15:40 43.65735 -5.06838 37013 ft 441 kts 212°
2026-05-04 15:41 43.60463 -5.11178 37020 ft 441 kts 212°
2026-05-04 15:41 43.55193 -5.15509 37019 ft 441 kts 212°
2026-05-04 15:42 43.49954 -5.19805 37016 ft 441 kts 213°
2026-05-04 15:42 43.44681 -5.24120 37020 ft 441 kts 213°
2026-05-04 15:43 43.39414 -5.28421 37024 ft 440 kts 212°
2026-05-04 15:43 43.34147 -5.32714 37024 ft 440 kts 212°
2026-05-04 15:44 43.28906 -5.36977 37003 ft 441 kts 213°
2026-05-04 15:44 43.23622 -5.41265 37006 ft 442 kts 213°
2026-05-04 15:45 43.18328 -5.45554 37006 ft 442 kts 213°
2026-05-04 15:45 43.13037 -5.49831 37001 ft 442 kts 213°
2026-05-04 15:46 43.07776 -5.54074 36997 ft 442 kts 213°
2026-05-04 15:46 43.02488 -5.58331 36984 ft 441 kts 213°
2026-05-04 15:47 42.97202 -5.62580 36982 ft 441 kts 213°
2026-05-04 15:47 42.91921 -5.66814 36978 ft 440 kts 213°
2026-05-04 15:48 42.86688 -5.71002 36951 ft 439 kts 213°
2026-05-04 15:48 42.78794 -5.77303 36959 ft 439 kts 213°
2026-05-04 15:49 42.73527 -5.81498 36971 ft 439 kts 213°
2026-05-04 15:49 42.68254 -5.85689 36972 ft 439 kts 213°
2026-05-04 15:50 42.63007 -5.89850 36961 ft 440 kts 213°
2026-05-04 15:50 42.57719 -5.94036 36963 ft 440 kts 213°
2026-05-04 15:51 42.52424 -5.98219 36959 ft 441 kts 213°
2026-05-04 15:51 42.47126 -6.02396 36955 ft 441 kts 213°
2026-05-04 15:52 42.41852 -6.06546 36941 ft 441 kts 213°
2026-05-04 15:52 42.36542 -6.10716 36946 ft 441 kts 213°
2026-05-04 15:53 42.31225 -6.14883 36948 ft 441 kts 213°
2026-05-04 15:53 42.25911 -6.19039 36944 ft 441 kts 213°
2026-05-04 15:54 42.20634 -6.23158 36937 ft 441 kts 214°
2026-05-04 15:54 42.15326 -6.27294 36943 ft 440 kts 214°
2026-05-04 15:55 42.10018 -6.31422 36939 ft 441 kts 214°
2026-05-04 15:55 42.04712 -6.35540 36942 ft 440 kts 214°
2026-05-04 15:56 41.99408 -6.39648 36947 ft 439 kts 214°
2026-05-04 15:56 41.94151 -6.43712 36948 ft 439 kts 214°
2026-05-04 15:57 41.88863 -6.47791 36955 ft 438 kts 214°
2026-05-04 15:57 41.83581 -6.51859 36950 ft 438 kts 214°
2026-05-04 15:58 41.78298 -6.55918 36949 ft 437 kts 214°
2026-05-04 15:58 41.73061 -6.59935 36955 ft 436 kts 214°
2026-05-04 15:59 41.67943 -6.64217 36967 ft 431 kts 221°
2026-05-04 15:59 41.63195 -6.69092 36966 ft 430 kts 222°
2026-05-04 16:00 41.58476 -6.74003 36974 ft 430 kts 222°
2026-05-04 16:00 41.53742 -6.78865 36969 ft 429 kts 222°
2026-05-04 16:01 41.49038 -6.83650 36976 ft 428 kts 221°
2026-05-04 16:01 41.44292 -6.88454 36976 ft 428 kts 221°
2026-05-04 16:02 41.39546 -6.93249 36990 ft 428 kts 221°
2026-05-04 16:03 41.32453 -7.00399 36996 ft 428 kts 221°
2026-05-04 16:03 41.27697 -7.05183 36980 ft 429 kts 222°
2026-05-04 16:04 41.22940 -7.09960 36998 ft 429 kts 221°
2026-05-04 16:04 41.15789 -7.17123 36995 ft 429 kts 221°
2026-05-04 16:05 41.11056 -7.21852 36976 ft 429 kts 221°
2026-05-04 16:06 41.03898 -7.28989 36989 ft 429 kts 222°
2026-05-04 16:07 40.94345 -7.38484 36995 ft 429 kts 221°
2026-05-04 16:08 40.84826 -7.47907 37018 ft 428 kts 222°
2026-05-04 16:09 40.72920 -7.59648 37028 ft 429 kts 221°
2026-05-04 16:10 40.63344 -7.69051 37011 ft 429 kts 222°
2026-05-04 16:11 40.53808 -7.78380 37020 ft 429 kts 222°
2026-05-04 16:12 40.39435 -7.92378 37035 ft 428 kts 222°
2026-05-04 16:13 40.29862 -8.01662 36419 ft 432 kts 222°
2026-05-04 16:14 40.25053 -8.06307 35165 ft 428 kts 222°
2026-05-04 16:14 40.20266 -8.10925 33787 ft 427 kts 223°
2026-05-04 16:15 40.13166 -8.17761 31521 ft 422 kts 223°
2026-05-04 16:16 40.08424 -8.22319 29945 ft 424 kts 223°
2026-05-04 16:16 40.01557 -8.28846 29094 ft 388 kts 219°
2026-05-04 16:17 39.96454 -8.30915 28587 ft 392 kts 195°
2026-05-04 16:18 39.87996 -8.32124 27571 ft 414 kts 194°
2026-05-04 16:18 39.85155 -8.32528 27225 ft 408 kts 194°
2026-05-04 16:19 39.76851 -8.33779 26255 ft 394 kts 194°
2026-05-04 16:19 39.71501 -8.34613 25606 ft 378 kts 198°
2026-05-04 16:20 39.65730 -8.39828 24825 ft 325 kts 238°
2026-05-04 16:20 39.63074 -8.44456 24304 ft 315 kts 238°
2026-05-04 16:21 39.59147 -8.51154 23570 ft 315 kts 237°
2026-05-04 16:22 39.55641 -8.54758 23003 ft 327 kts 218°
2026-05-04 16:22 39.49788 -8.59264 22168 ft 324 kts 217°
2026-05-04 16:23 39.44046 -8.63735 21390 ft 321 kts 218°
2026-05-04 16:24 39.36418 -8.69701 20372 ft 320 kts 217°
2026-05-04 16:25 39.32616 -8.72671 19854 ft 319 kts 217°
2026-05-04 16:26 39.25932 -8.79753 18869 ft 310 kts 228°
2026-05-04 16:26 39.21154 -8.85336 18086 ft 307 kts 227°
2026-05-04 16:27 39.17985 -8.88973 17546 ft 303 kts 227°
2026-05-04 16:28 39.13293 -8.94329 16774 ft 301 kts 227°
2026-05-04 16:28 39.08579 -8.99694 16009 ft 301 kts 227°
2026-05-04 16:29 39.02320 -9.06798 15012 ft 298 kts 226°
2026-05-04 16:30 38.97171 -9.11017 14262 ft 295 kts 208°
2026-05-04 16:31 38.93406 -9.12962 13767 ft 288 kts 208°
2026-05-04 16:31 38.87960 -9.15827 12982 ft 279 kts 208°
2026-05-04 16:32 38.82658 -9.18651 12228 ft 272 kts 208°
2026-05-04 16:33 38.79214 -9.20491 11722 ft 268 kts 208°
2026-05-04 16:33 38.75783 -9.22320 11219 ft 266 kts 207°
2026-05-04 16:34 38.72440 -9.24249 10719 ft 262 kts 223°
2026-05-04 16:34 38.71256 -9.25955 10503 ft 256 kts 238°
2026-05-04 16:35 38.68047 -9.31458 9762 ft 258 kts 238°
2026-05-04 16:35 38.65722 -9.37608 8949 ft 256 kts 251°
2026-05-04 16:36 38.65020 -9.39661 8708 ft 255 kts 250°
2026-05-04 16:36 38.63569 -9.43787 8201 ft 253 kts 249°
2026-05-04 16:37 38.62108 -9.47871 8100 ft 252 kts 249°
2026-05-04 16:37 38.61381 -9.49894 8102 ft 249 kts 249°
2026-05-04 16:37 38.59686 -9.53704 8084 ft 249 kts 224°
2026-05-04 16:38 38.56421 -9.54723 8110 ft 251 kts 174°
2026-05-04 16:39 38.51173 -9.53376 8107 ft 259 kts 171°
2026-05-04 16:39 38.47957 -9.51483 8110 ft 257 kts 147°
2026-05-04 16:40 38.44990 -9.48913 8102 ft 261 kts 148°
2026-05-04 16:40 38.41964 -9.46315 8102 ft 263 kts 142°
2026-05-04 16:41 38.39858 -9.42679 8092 ft 250 kts 124°
2026-05-04 16:41 38.37017 -9.37264 8090 ft 246 kts 124°
2026-05-04 16:42 38.35504 -9.31204 8107 ft 245 kts 99°
2026-05-04 16:43 38.34839 -9.26948 8087 ft 244 kts 100°
2026-05-04 16:43 38.34390 -9.22700 8074 ft 241 kts 78°
2026-05-04 16:43 38.34730 -9.20629 8099 ft 240 kts 76°
2026-05-04 16:44 38.38030 -9.14473 7968 ft 224 kts 358°
2026-05-04 16:45 38.40842 -9.15862 7550 ft 218 kts 323°
2026-05-04 16:46 38.44416 -9.19328 6880 ft 213 kts 323°
2026-05-04 16:46 38.46745 -9.21598 6496 ft 208 kts 323°
2026-05-04 16:47 38.48933 -9.23725 6093 ft 185 kts 324°
2026-05-04 16:47 38.50853 -9.25588 5778 ft 161 kts 324°
2026-05-04 16:48 38.53952 -9.26426 5171 ft 171 kts 17°
2026-05-04 16:48 38.55045 -9.25910 4952 ft 169 kts 17°
2026-05-04 16:49 38.57178 -9.24816 4504 ft 163 kts 20°
2026-05-04 16:49 38.59287 -9.23694 4046 ft 164 kts 19°
2026-05-04 16:50 38.61378 -9.22574 3614 ft 162 kts 19°
2026-05-04 16:50 38.63466 -9.21455 3182 ft 163 kts 19°
2026-05-04 16:51 38.65517 -9.20355 2744 ft 160 kts 18°
2026-05-04 16:51 38.66542 -9.19805 2531 ft 161 kts 18°
2026-05-04 16:51 38.68622 -9.18690 2100 ft 161 kts 18°
2026-05-04 16:52 38.70558 -9.17651 1745 ft 145 kts 18°
2026-05-04 16:52 38.71491 -9.17150 1479 ft 143 kts 18°
2026-05-04 16:53 38.73285 -9.16182 1165 ft 139 kts 14°
2026-05-04 16:53 38.75960 -9.14769 486 ft 134 kts 19°
2026-05-04 16:54 38.76804 -9.14299 357 ft 129 kts 16°
2026-05-04 16:55 38.78332 -9.13407 367 ft 22 kts 46°
2026-05-04 16:55 38.78286 -9.13281 359 ft 13 kts 202°
2026-05-04 16:56 38.78119 -9.13369 361 ft 13 kts 202°
2026-05-04 16:56 38.77886 -9.13495 356 ft 12 kts 201°
2026-05-04 16:57 38.77812 -9.13534 356 ft 12 kts 203°
2026-05-04 16:57 38.77540 -9.13681 357 ft 23 kts 202°
2026-05-04 16:58 38.77122 -9.13899 359 ft 21 kts 187°
2026-05-04 16:58 38.76983 -9.13868 349 ft 20 kts 168°
2026-05-04 16:59 38.76709 -9.13795 343 ft 20 kts 167°
2026-05-04 17:00 38.76472 -9.13685 347 ft 3 kts 169°
2026-05-04 17:00 38.76468 -9.13684 356 ft 0 kts 168°